Tiempo atmosférico en la estación meteorológica de Bunyola, Sierra de Alfabia, Illes Balears (1030 m.)



Fecha
DESCASC
Temp. máxima en grados centígrados (hora)
DESCASC
Temp. mínima en grados centígrados (hora)
DESCASC
Temp. media en grados centígrados
DESCASC
Racha de viento máxima en m/sg (hora)
DESCASC
Velocidad máxima media en intervalos de 10 minutos(hora)
DESCASC
Precipitaciones diarias en mm
DESCASC
Precipitaciones de 00:00 a 06:00 en mm
DESCASC
Precipitaciones de 06:00 a 12:00 en mm
DESCASC
Precipitaciones de 12:00 a 18:00 en mm
DESCASC
Precipitaciones de 18:00 a 24:00 en mm
DESCASC

Gráficas

Temp. máximas Temp. mínimas Temp. medias Precipitaciones Rachas de viento máximas Velocidades máximas media en intervalos de 10 minutos

Datos horarios

Fecha y hora oficial Temperatura (ºC) Velocidad del viento (km/h) Dirección del viento Racha (km/h) Dirección de racha Precipitación (mm) Presión (hPa) Tendencia (hPa) Humedad (%)
2018-05-21 23:00:00 10 22 Norte 26 Norte 0 -- -- --
2018-05-21 22:00:00 10.2 20 Noroeste 24 Noroeste 0 -- -- --
2018-05-21 21:00:00 11.1 17 Noroeste 25 Norte 0 -- -- --
2018-05-21 20:00:00 12.2 11 Norte 22 Noroeste 0 -- -- --
2018-05-21 19:00:00 13.7 16 Noroeste 28 Oeste 0 -- -- --
2018-05-21 18:00:00 15.7 13 Noroeste 22 Norte 0 -- -- --
2018-05-21 17:00:00 15 10 Noroeste 20 Noroeste 0 -- -- --
2018-05-21 16:00:00 14.3 11 Noroeste 28 Norte 0 -- -- --
2018-05-21 15:00:00 13.3 17 Noroeste 27 Norte 0 -- -- --
2018-05-21 14:00:00 13.8 13 Noroeste 22 Noroeste 0 -- -- --
2018-05-21 13:00:00 12.7 9 Norte 15 Noroeste 0 -- -- --
2018-05-21 12:00:00 12.2 5 Sudoeste 12 Sur 0 -- -- --
2018-05-21 11:00:00 13.3 4 Sur 12 Sudeste 0 -- -- --
2018-05-21 10:00:00 10.5 10 Sudeste 30 Este 0 -- -- --
2018-05-21 09:00:00 10.2 17 Sudeste 22 Este 0 -- -- --
2018-05-21 08:00:00 10 10 Este 15 Este 0 -- -- --
2018-05-21 07:00:00 9.8 8 Este 11 Este 0 -- -- --
2018-05-21 06:00:00 9.8 8 Este 13 Este 0 -- -- --
2018-05-21 05:00:00 10 8 Este 13 Este 0 -- -- --
2018-05-21 04:00:00 10.3 8 Este 14 Sudeste 0 -- -- --
2018-05-21 03:00:00 10.1 7 Este 10 Este 0 -- -- --
2018-05-21 02:00:00 10.2 6 Este 10 Este 0 -- -- --
2018-05-21 01:00:00 10.4 5 Nordeste 8 Nordeste 0 -- -- --
2018-05-21 00:00:00 10.5 4 Norte 10 Noroeste 0 -- -- --
2018-05-20 23:00:00 10.5 8 Noroeste 10 Noroeste 0 -- -- --
2018-05-20 22:00:00 10.5 7 Noroeste 11 Noroeste 0 -- -- --
2018-05-20 21:00:00 10.8 0 Calma 15 Sur 0 -- -- --
2018-05-20 20:00:00 11 13 Sur 18 Sur 0 -- -- --
2018-05-20 19:00:00 10.9 9 Sur 23 Sudoeste 0 -- -- --
2018-05-20 18:00:00 12.7 10 Sur 17 Sur 0 -- -- --
2018-05-20 17:00:00 12 6 Nordeste 15 Oeste 16.4 -- -- --
2018-05-20 16:00:00 12.1 6 Oeste 15 Oeste 12 -- -- --
2018-05-20 15:00:00 13.7 3 Oeste 13 Nordeste 0 -- -- --
2018-05-20 14:00:00 13.4 6 Nordeste 12 Nordeste 0 -- -- --
2018-05-20 13:00:00 13.9 0 Calma 14 Norte 0 -- -- --
2018-05-20 12:00:00 14.5 6 Norte 13 Sudeste 0 -- -- --
2018-05-20 11:00:00 14.6 4 Noroeste 12 Norte 0 -- -- --
2018-05-20 10:00:00 13.4 5 Norte 14 Nordeste 0 -- -- --
2018-05-20 09:00:00 12.8 8 Norte 17 Nordeste 0 -- -- --
2018-05-20 08:00:00 11.2 15 Nordeste 28 Nordeste 0 -- -- --
2018-05-20 07:00:00 10.3 21 Nordeste 32 Nordeste 0 -- -- --
2018-05-20 06:00:00 10.2 18 Nordeste 27 Nordeste 0 -- -- --
2018-05-20 05:00:00 9.9 17 Nordeste 24 Nordeste 0 -- -- --
2018-05-20 04:00:00 10.2 17 Norte 22 Nordeste 0 -- -- --
2018-05-20 03:00:00 10.8 12 Nordeste 19 Nordeste 0 -- -- --
2018-05-20 02:00:00 11 14 Norte 25 Nordeste 0 -- -- --
2018-05-20 01:00:00 11 19 Norte 22 Norte 0 -- -- --
2018-05-20 00:00:00 10.8 8 Norte 12 Norte 0 -- -- --
2018-05-19 23:00:00 11 9 Norte 16 Nordeste 0 -- -- --
2018-05-19 22:00:00 11.5 14 Nordeste 18 Este 0 -- -- --
2018-05-19 21:00:00 11.6 13 Sudeste 19 Sudeste 0 -- -- --
2018-05-19 20:00:00 12.6 10 Sudeste 15 Sur 0 -- -- --
2018-05-19 19:00:00 15.1 3 Sur 18 Sudeste 0 -- -- --
2018-05-19 18:00:00 15.2 8 Sudeste 21 Sudeste 0 -- -- --
2018-05-19 17:00:00 15 12 Sur 23 Sudeste 0 -- -- --
2018-05-19 16:00:00 14 5 Sur 17 Sudoeste 0 -- -- --
2018-05-19 15:00:00 15.5 4 Nordeste 14 Nordeste 0 -- -- --
2018-05-19 14:00:00 13.7 7 Nordeste 15 Norte 0 -- -- --
2018-05-19 13:00:00 14.5 5 Norte 15 Sur 0 -- -- --
2018-05-19 12:00:00 15.3 3 Sudeste 19 Sudoeste 0 -- -- --
2018-05-19 11:00:00 14.6 4 Nordeste 10 Norte 0 -- -- --
2018-05-19 10:00:00 13.5 5 Norte 13 Nordeste 0 -- -- --
2018-05-19 09:00:00 13.2 4 Nordeste 14 Sudeste 0 -- -- --
2018-05-19 08:00:00 11.5 10 Sudeste 21 Este 0 -- -- --
2018-05-19 07:00:00 9.9 12 Nordeste 28 Este 0 -- -- --
2018-05-19 06:00:00 10 17 Este 27 Nordeste 0 -- -- --
2018-05-19 05:00:00 9.4 16 Este 33 Este 0 -- -- --
2018-05-19 04:00:00 8.7 23 Este 30 Sudeste 0 -- -- --
2018-05-19 03:00:00 8.9 18 Este 26 Este 0 -- -- --
2018-05-19 02:00:00 9 19 Este 28 Este 0 -- -- --
2018-05-19 01:00:00 9 15 Nordeste 26 Este 0 -- -- --
2018-05-19 00:00:00 9 13 Nordeste 29 Nordeste 0 -- -- --
2018-05-18 23:00:00 8.6 16 Este 22 Este 0 -- -- --
2018-05-18 22:00:00 10 8 Norte 13 Nordeste 0 -- -- --
2018-05-18 21:00:00 10.7 7 Norte 14 Norte 0 -- -- --
2018-05-18 20:00:00 11.4 9 Norte 15 Norte 0 -- -- --
2018-05-18 19:00:00 12.2 10 Este 27 Este 0 -- -- --
2018-05-18 18:00:00 12.6 19 Este 32 Este 0 -- -- --
2018-05-18 17:00:00 12.8 4 Este 25 Sudeste 0 -- -- --
2018-05-18 16:00:00 12.4 4 Norte 26 Sudeste 0 -- -- --
2018-05-18 15:00:00 13.3 12 Este 30 Sudeste 0 -- -- --
2018-05-18 14:00:00 12.4 6 Norte 20 Sudeste 0 -- -- --
2018-05-18 13:00:00 13.1 6 Este 18 Sudeste 0 -- -- --
2018-05-18 12:00:00 11 6 Norte 20 Nordeste 0 -- -- --
2018-05-18 11:00:00 11.3 7 Nordeste 22 Nordeste 0 -- -- --
2018-05-18 10:00:00 9.4 9 Nordeste 36 Noroeste 0 -- -- --
2018-05-18 09:00:00 7.9 21 Noroeste 40 Norte 0 -- -- --
2018-05-18 08:00:00 8.1 30 Norte 48 Norte 0 -- -- --
2018-05-18 07:00:00 8.2 34 Norte 49 Noroeste 0 -- -- --
2018-05-18 06:00:00 7.8 31 Norte 48 Norte 0 -- -- --
2018-05-18 05:00:00 8 38 Norte 55 Noroeste 0 -- -- --
2018-05-18 04:00:00 8.2 36 Norte 58 Noroeste 0 -- -- --
2018-05-18 03:00:00 8.8 36 Norte 53 Norte 0 -- -- --
2018-05-18 02:00:00 9 36 Norte 51 Norte 0 -- -- --
2018-05-18 01:00:00 9.7 21 Norte 32 Norte 0 -- -- --
2018-05-18 00:00:00 10.4 16 Norte 27 Norte 0 -- -- --
2018-05-17 23:00:00 10.6 13 Norte 27 Norte 0 -- -- --
2018-05-17 22:00:00 11.6 14 Nordeste 24 Nordeste 0 -- -- --
2018-05-17 21:00:00 12.1 4 Este 12 Nordeste 0 -- -- --
2018-05-17 20:00:00 13.3 4 Noroeste 11 Sudeste 0 -- -- --
2018-05-17 19:00:00 13.6 10 Sudeste 20 Sudeste 0 -- -- --
2018-05-17 18:00:00 13.7 11 Sudeste 20 Sudeste 0 -- -- --
2018-05-17 17:00:00 13.3 15 Sudeste 24 Sudeste 0 -- -- --
2018-05-17 16:00:00 12.2 14 Sur 22 Sur 0 -- -- --
2018-05-17 15:00:00 14.4 6 Nordeste 18 Este 0 -- -- --
2018-05-17 14:00:00 16.9 5 Sudeste 17 Sudeste 0 -- -- --
2018-05-17 13:00:00 14.2 4 Norte 15 Norte 0 -- -- --
2018-05-17 12:00:00 14.3 4 Norte 30 Oeste 0 -- -- --
2018-05-17 11:00:00 13 7 Nordeste 18 Noroeste 0 -- -- --
2018-05-17 10:00:00 12.4 12 Norte 24 Norte 0 -- -- --
2018-05-17 09:00:00 11.6 16 Norte 21 Norte 0 -- -- --
2018-05-17 08:00:00 11.3 8 Nordeste 13 Nordeste 0 -- -- --
2018-05-17 07:00:00 10 10 Norte 18 Norte 0 -- -- --
2018-05-17 06:00:00 10.2 10 Nordeste 15 Nordeste 0 -- -- --
2018-05-17 05:00:00 10.6 9 Nordeste 12 Nordeste 0 -- -- --
2018-05-17 04:00:00 10.1 6 Nordeste 10 Nordeste 0 -- -- --
2018-05-17 03:00:00 10.5 6 Nordeste 11 Nordeste 0 -- -- --
2018-05-17 02:00:00 11.3 8 Nordeste 11 Nordeste 0 -- -- --
2018-05-17 01:00:00 11.1 9 Norte 15 Norte 0 -- -- --
2018-05-17 00:00:00 10.6 14 Norte 19 Norte 0 -- -- --
2018-05-16 23:00:00 10.8 13 Norte 15 Norte 0 -- -- --
2018-05-16 22:00:00 10.4 5 Nordeste 12 Sudeste 0 -- -- --
2018-05-16 21:00:00 10.7 9 Sudeste 15 Sur 0 -- -- --
2018-05-16 20:00:00 12 11 Sur 17 Sur 0 -- -- --
2018-05-16 19:00:00 14.4 8 Sur 18 Sudoeste 0 -- -- --
2018-05-16 18:00:00 16 7 Sur 19 Sudoeste 0 -- -- --
2018-05-16 17:00:00 15.2 0 Calma 14 Nordeste 0 -- -- --
2018-05-16 16:00:00 15.5 4 Nordeste 25 Sudoeste 0 -- -- --
2018-05-16 15:00:00 15.7 5 Sur 27 Sudoeste 0 -- -- --
2018-05-16 14:00:00 15.3 5 Sur 28 Sur 0 -- -- --
2018-05-16 13:00:00 14.5 9 Sur 22 Sudoeste 0 -- -- --
2018-05-16 12:00:00 14.8 8 Sur 19 Sur 0 -- -- --
2018-05-16 11:00:00 14.3 10 Sur 21 Sudeste 0 -- -- --
2018-05-16 10:00:00 13.3 9 Sur 14 Sudeste 0 -- -- --
2018-05-16 09:00:00 14.3 6 Sudeste 11 Sudeste 0 -- -- --
2018-05-16 08:00:00 12.5 6 Nordeste 7 Nordeste 0 -- -- --
2018-05-16 07:00:00 10.6 3 Nordeste 6 Nordeste 0 -- -- --
2018-05-16 06:00:00 9.8 2 Nordeste 7 Nordeste 0 -- -- --
2018-05-16 05:00:00 10.5 4 Nordeste 6 Este 0 -- -- --
2018-05-16 04:00:00 10.8 4 Este 7 Norte 0 -- -- --
2018-05-16 03:00:00 10.6 3 Norte 7 Noroeste 0 -- -- --
2018-05-16 02:00:00 10.4 0 Calma 6 Nordeste 0 -- -- --
2018-05-16 01:00:00 10.6 8 Norte 15 Norte 0 -- -- --
2018-05-16 00:00:00 10.5 15 Noroeste 21 Noroeste 0 -- -- --
2018-05-15 23:00:00 9.8 15 Noroeste 21 Noroeste 0 -- -- --
2018-05-15 22:00:00 10 11 Noroeste 15 Noroeste 0 -- -- --
2018-05-15 21:00:00 10.5 4 Oeste 17 Noroeste 0 -- -- --
2018-05-15 20:00:00 11.3 8 Noroeste 19 Norte 0 -- -- --
2018-05-15 19:00:00 12.1 11 Noroeste 27 Noroeste 0 -- -- --
2018-05-15 18:00:00 11.8 18 Noroeste 32 Noroeste 0 -- -- --
2018-05-15 17:00:00 10.9 22 Noroeste 28 Norte 0 -- -- --
2018-05-15 16:00:00 12 18 Noroeste 25 Noroeste 0 -- -- --
2018-05-15 15:00:00 12.5 14 Noroeste 36 Norte 0 -- -- --
2018-05-15 14:00:00 11.5 12 Norte 22 Noroeste 0 -- -- --
2018-05-15 13:00:00 13.6 12 Noroeste 26 Noroeste 0 -- -- --
2018-05-15 12:00:00 10.6 10 Norte 22 Noroeste 0 -- -- --
2018-05-15 11:00:00 11.6 17 Noroeste 29 Noroeste 0 -- -- --
2018-05-15 10:00:00 8.8 19 Noroeste 33 Noroeste 0 -- -- --
2018-05-15 09:00:00 8 20 Noroeste 36 Noroeste 0 -- -- --
2018-05-15 08:00:00 6.6 17 Noroeste 34 Noroeste 0 -- -- --
2018-05-15 07:00:00 6 19 Noroeste 30 Noroeste 0 -- -- --
2018-05-15 06:00:00 6.2 21 Noroeste 33 Noroeste 0 -- -- --
2018-05-15 05:00:00 6.4 18 Noroeste 33 Noroeste 0 -- -- --
2018-05-15 04:00:00 6.4 17 Noroeste 32 Noroeste 0 -- -- --
2018-05-15 03:00:00 6.5 16 Noroeste 32 Noroeste 0 -- -- --
2018-05-15 02:00:00 6.5 18 Noroeste 25 Noroeste 0 -- -- --
2018-05-15 01:00:00 6 18 Noroeste 24 Noroeste 0 -- -- --
2018-05-15 00:00:00 6.5 19 Norte 24 Norte 0 -- -- --
2018-05-14 23:00:00 6.7 15 Norte 39 Norte 0 -- -- --
2018-05-14 22:00:00 7.2 25 Noroeste 34 Norte 0 -- -- --
2018-05-14 21:00:00 6.6 30 Noroeste 41 Noroeste 0 -- -- --
2018-05-14 20:00:00 6.9 27 Noroeste 44 Noroeste 0 -- -- --
2018-05-14 19:00:00 7.4 27 Noroeste 50 Noroeste 0 -- -- --
2018-05-14 18:00:00 9.5 31 Noroeste 44 Norte 0 -- -- --
2018-05-14 17:00:00 9.4 25 Noroeste 43 Noroeste 0 -- -- --
2018-05-14 16:00:00 8.6 23 Noroeste 47 Noroeste 0 -- -- --
2018-05-14 15:00:00 8.3 24 Noroeste 50 Noroeste 0 -- -- --
2018-05-14 14:00:00 8.1 32 Noroeste 53 Noroeste 0 -- -- --
2018-05-14 13:00:00 6.8 26 Noroeste 51 Norte 0 -- -- --
2018-05-14 12:00:00 6.4 35 Noroeste 58 Noroeste 0 -- -- --
2018-05-14 11:00:00 5.8 32 Noroeste 62 Noroeste 0 -- -- --
2018-05-14 10:00:00 4.9 34 Noroeste 64 Noroeste 0 -- -- --
2018-05-14 09:00:00 4.8 38 Noroeste 62 Noroeste 0 -- -- --
2018-05-14 08:00:00 5.3 39 Noroeste 58 Noroeste 0 -- -- --
2018-05-14 07:00:00 5.1 41 Noroeste 64 Noroeste 0 -- -- --
2018-05-14 06:00:00 5.7 33 Noroeste 63 Noroeste 0 -- -- --
2018-05-14 05:00:00 6.2 33 Noroeste 60 Noroeste 0 -- -- --
2018-05-14 04:00:00 6.1 38 Noroeste 67 Noroeste 0.6 -- -- --
2018-05-14 03:00:00 5.8 26 Noroeste 50 Noroeste 0 -- -- --
2018-05-14 02:00:00 6.2 23 Noroeste 53 Oeste 0 -- -- --
2018-05-14 01:00:00 6.5 27 Noroeste 53 Noroeste 0 -- -- --
2018-05-11 20:00:00 11.5 8 Sur 14 Sur 0 -- -- --
2018-05-11 19:00:00 12.6 9 Sur 19 Sur 0 -- -- --
2018-05-11 18:00:00 13.1 14 Sur 26 Sur 0 -- -- --
2018-05-11 17:00:00 13.3 21 Sur 35 Sur 0 -- -- --
2018-05-11 16:00:00 14.1 20 Sur 38 Sur 0 -- -- --
2018-05-11 15:00:00 14.5 22 Sur 39 Sur 0 -- -- --
2018-05-11 14:00:00 15 22 Sur 36 Sur 0 -- -- --
2018-05-11 13:00:00 14.2 24 Sur 39 Sur 0 -- -- --
2018-05-11 12:00:00 13.9 26 Sur 41 Sur 0 -- -- --
2018-05-11 11:00:00 12.7 23 Sur 32 Sur 0 -- -- --
2018-05-11 10:00:00 12.7 20 Sur 29 Sur 0 -- -- --
2018-05-11 09:00:00 11.8 18 Sur 28 Sur 0 -- -- --
2018-05-11 08:00:00 10.1 20 Sur 27 Sur 0 -- -- --
2018-05-11 07:00:00 8.9 17 Sur 22 Sur 0 -- -- --
2018-05-11 06:00:00 8.8 16 Sur 21 Sur 0 -- -- --
2018-05-11 05:00:00 8.8 16 Sur 22 Sur 0 -- -- --
2018-05-11 04:00:00 9 14 Sur 24 Sur 0 -- -- --
2018-05-11 03:00:00 9.2 18 Sur 27 Sur 0 -- -- --
2018-05-11 02:00:00 9.2 19 Sur 29 Sur 0 -- -- --
2018-05-11 01:00:00 9.5 18 Sur 25 Sur 0 -- -- --
2018-05-11 00:00:00 8.7 17 Sur 22 Sur 0 -- -- --
2018-05-10 23:00:00 9.9 15 Sur 21 Sur 0 -- -- --
2018-05-10 22:00:00 10.3 13 Sur 27 Sur 0 -- -- --
2018-05-10 21:00:00 10.5 22 Sur 29 Sur 0 -- -- --
2018-05-10 20:00:00 10.9 18 Sur 25 Sur 0 -- -- --
2018-05-10 19:00:00 11.5 7 Sur 23 Sur 0 -- -- --
2018-05-10 18:00:00 11.8 17 Sur 28 Sur 0 -- -- --
2018-05-10 17:00:00 11 19 Sur 28 Sur 0 -- -- --
2018-05-10 16:00:00 11.6 13 Sur 27 Sudoeste 0 -- -- --
2018-05-10 15:00:00 12.7 11 Sur 27 Sur 0.2 -- -- --
2018-05-10 14:00:00 14.3 17 Sur 32 Sur 0 -- -- --
2018-05-10 13:00:00 16.1 14 Sudeste 28 Sudeste 0 -- -- --
2018-05-10 12:00:00 15.3 12 Sudeste 22 Sudeste 0 -- -- --
2018-05-10 11:00:00 14.8 9 Sudeste 20 Sudeste 0 -- -- --
2018-05-10 10:00:00 12.3 2 Nordeste 15 Norte 0 -- -- --
2018-05-10 09:00:00 10.9 9 Norte 26 Norte 0 -- -- --
2018-05-10 08:00:00 10 21 Noroeste 30 Norte 0 -- -- --
2018-05-10 07:00:00 10.9 25 Norte 36 Norte 0 -- -- --
2018-05-10 06:00:00 10.6 28 Norte 36 Norte 0 -- -- --
2018-05-10 05:00:00 10.1 24 Norte 29 Noroeste 0 -- -- --
2018-05-10 04:00:00 10.2 22 Noroeste 26 Noroeste 0 -- -- --
2018-05-10 03:00:00 10.7 19 Noroeste 30 Noroeste 0 -- -- --
2018-05-10 02:00:00 10.9 27 Noroeste 31 Norte 0 -- -- --
2018-05-10 01:00:00 10.8 21 Noroeste 29 Noroeste 0 -- -- --
2018-05-10 00:00:00 11 19 Noroeste 26 Noroeste 0 -- -- --
2018-05-09 23:00:00 11.5 14 Oeste 23 Oeste 0 -- -- --
2018-05-09 22:00:00 12.1 14 Oeste 24 Oeste 0 -- -- --
2018-05-09 21:00:00 12.6 13 Sudoeste 25 Oeste 0 -- -- --
2018-05-09 20:00:00 12.9 10 Sudoeste 21 Oeste 0 -- -- --
2018-05-09 19:00:00 13.8 10 Sudoeste 24 Sudoeste 0 -- -- --
2018-05-09 18:00:00 14.2 8 Sur 19 Sur 0 -- -- --
2018-05-09 17:00:00 13.4 11 Sur 25 Sur 0 -- -- --
2018-05-09 16:00:00 13.8 16 Sur 26 Sur 0 -- -- --
2018-05-09 15:00:00 14.7 12 Sur 20 Sudoeste 0 -- -- --
2018-05-09 14:00:00 14.7 12 Sur 21 Sudoeste 0 -- -- --
2018-05-09 13:00:00 15.7 9 Sur 19 Sur 0 -- -- --
2018-05-09 12:00:00 12.7 13 Nordeste 21 Nordeste 0 -- -- --
2018-05-09 11:00:00 14 8 Norte 16 Noroeste 0 -- -- --
2018-05-09 10:00:00 15.1 8 Noroeste 13 Noroeste 0 -- -- --
2018-05-09 09:00:00 12.5 11 Noroeste 16 Noroeste 0 -- -- --
2018-05-09 08:00:00 12.9 9 Oeste 17 Sudoeste 0 -- -- --
2018-05-09 07:00:00 11.6 10 Sur 17 Sur 0 -- -- --
2018-05-09 06:00:00 11.6 14 Sur 21 Sur 0 -- -- --
2018-05-09 05:00:00 11.2 8 Sur 13 Sur 0 -- -- --
2018-05-09 04:00:00 11.6 3 Este 9 Norte 0 -- -- --
2018-05-09 03:00:00 11.6 5 Sudeste 17 Sudeste 0 -- -- --
2018-05-09 02:00:00 11.7 17 Sudeste 22 Sudeste 0 -- -- --
2018-05-09 01:00:00 11.8 17 Sudeste 21 Sudeste 0 -- -- --
2018-05-09 00:00:00 12 10 Este 19 Este 0 -- -- --
2018-05-08 23:00:00 12.3 11 Nordeste 28 Este 0 -- -- --
2018-05-08 22:00:00 11.8 10 Nordeste 18 Este 0 -- -- --
2018-05-08 21:00:00 12.2 8 Nordeste 13 Norte 0 -- -- --
2018-05-08 20:00:00 12.6 12 Noroeste 19 Noroeste 0 -- -- --
2018-05-08 19:00:00 14.1 2 Oeste 13 Noroeste 0 -- -- --
2018-05-08 18:00:00 12.6 7 Norte 16 Noroeste 0 -- -- --
2018-05-08 17:00:00 13.1 4 Noroeste 14 Noroeste 0 -- -- --
2018-05-08 16:00:00 13.9 3 Norte 16 Noroeste 0 -- -- --
2018-05-08 15:00:00 13.3 9 Norte 19 Norte 0 -- -- --
2018-05-08 14:00:00 13.6 13 Norte 22 Noroeste 0 -- -- --
2018-05-08 13:00:00 14.2 8 Noroeste 14 Norte 0 -- -- --
2018-05-08 12:00:00 14.5 0 Calma 12 Nordeste 0 -- -- --
2018-05-08 11:00:00 14 0 Calma 13 Norte 0 -- -- --
2018-05-08 10:00:00 12.7 8 Norte 16 Norte 0 -- -- --
2018-05-08 09:00:00 10.6 13 Norte 20 Norte 0 -- -- --
2018-05-08 08:00:00 9.9 13 Norte 16 Noroeste 0 -- -- --
2018-05-08 07:00:00 9 11 Noroeste 15 Norte 0 -- -- --
2018-05-08 06:00:00 8.8 9 Norte 12 Sudoeste 0 -- -- --
2018-05-08 05:00:00 9.7 2 Norte 12 Noroeste 0 -- -- --
2018-05-08 04:00:00 8.9 10 Norte 21 Norte 0 -- -- --
2018-05-08 03:00:00 10 3 Este 11 Sudeste 0 -- -- --
2018-05-08 02:00:00 9.9 6 Norte 9 Norte 0 -- -- --
2018-05-08 01:00:00 10.7 5 Nordeste 9 Norte 0 -- -- --
2018-05-08 00:00:00 10.7 8 Norte 13 Norte 0 -- -- --
2018-05-07 23:00:00 11.4 9 Norte 12 Norte 0 -- -- --
2018-05-07 22:00:00 11.8 10 Norte 17 Noroeste 0 -- -- --
2018-05-07 21:00:00 10.6 13 Nordeste 18 Nordeste 0 -- -- --
2018-05-07 20:00:00 12.1 8 Nordeste 13 Este 0 -- -- --
2018-05-07 19:00:00 13.7 8 Sudeste 14 Sudeste 0 -- -- --
2018-05-07 18:00:00 13.6 10 Sur 17 Sur 0 -- -- --
2018-05-07 17:00:00 13.8 9 Sur 18 Sur 0 -- -- --
2018-05-07 16:00:00 13.3 9 Sur 17 Sur 0 -- -- --
2018-05-07 15:00:00 14.5 8 Sur 16 Sur 0 -- -- --
2018-05-07 14:00:00 13.9 6 Sur 14 Sur 0 -- -- --
2018-05-07 13:00:00 14.1 4 Sur 14 Sudeste 0 -- -- --
2018-05-07 12:00:00 14.2 3 Oeste 10 Sudoeste 0 -- -- --
2018-05-07 11:00:00 15.7 3 Sudeste 11 Sudeste 0 -- -- --
2018-05-07 10:00:00 15.2 3 Sudeste 14 Nordeste 0 -- -- --
2018-05-07 09:00:00 12.6 9 Nordeste 13 Nordeste 0 -- -- --
2018-05-07 08:00:00 11 10 Norte 12 Norte 0 -- -- --
2018-05-07 07:00:00 9.7 5 Noroeste 11 Norte 0 -- -- --
2018-05-07 06:00:00 9.5 5 Norte 9 Este 0 -- -- --
2018-05-07 05:00:00 9.2 6 Sudeste 8 Sudeste 0 -- -- --
2018-05-07 04:00:00 9.9 0 Calma 8 Nordeste 0 -- -- --
2018-05-07 03:00:00 9.6 6 Nordeste 11 Norte 0 -- -- --
2018-05-07 02:00:00 9.5 11 Norte 15 Norte 0 -- -- --
2018-05-07 01:00:00 10.1 11 Norte 13 Norte 0 -- -- --
2018-05-07 00:00:00 10.3 7 Norte 9 Norte 0 -- -- --
2018-05-06 23:00:00 10.7 5 Nordeste 10 Nordeste 0 -- -- --
2018-05-06 22:00:00 10.6 7 Nordeste 12 Nordeste 0 -- -- --
2018-05-06 21:00:00 10.2 10 Este 15 Sudeste 0 -- -- --
2018-05-06 20:00:00 11.5 11 Sudeste 17 Sudeste 0 -- -- --
2018-05-06 19:00:00 12.8 12 Sudeste 21 Sudeste 0 -- -- --
2018-05-06 18:00:00 13.3 8 Sudeste 16 Sur 0 -- -- --
2018-05-06 17:00:00 13.8 6 Sur 15 Nordeste 0 -- -- --
2018-05-06 16:00:00 11.5 10 Norte 27 Norte 0 -- -- --
2018-05-06 15:00:00 11.1 18 Norte 42 Noroeste 0 -- -- --
2018-05-06 14:00:00 9.8 34 Norte 51 Norte 0 -- -- --
2018-05-06 13:00:00 8.9 35 Noroeste 53 Noroeste 0 -- -- --
2018-05-06 12:00:00 9.3 42 Noroeste 54 Noroeste 0 -- -- --
2018-05-06 11:00:00 9.9 30 Norte 48 Norte 0 -- -- --
2018-05-06 10:00:00 9.8 26 Norte 37 Norte 0 -- -- --
2018-05-06 09:00:00 9 23 Norte 37 Nordeste 0 -- -- --
2018-05-06 08:00:00 9.2 25 Norte 43 Nordeste 0 -- -- --
2018-05-06 07:00:00 8.6 31 Norte 51 Nordeste 0 -- -- --
2018-05-06 06:00:00 8.5 28 Nordeste 41 Nordeste 0 -- -- --
2018-05-06 05:00:00 8.6 29 Norte 45 Norte 0 -- -- --
2018-05-06 04:00:00 8.2 21 Norte 40 Norte 0 -- -- --
2018-05-06 03:00:00 8.1 25 Norte 38 Nordeste 0 -- -- --
2018-05-06 02:00:00 8.3 28 Norte 43 Norte 0 -- -- --
2018-05-06 01:00:00 7.9 26 Norte 41 Noroeste 0 -- -- --
2018-05-06 00:00:00 8.2 27 Noroeste 39 Norte 0 -- -- --
2018-05-05 23:00:00 7.9 25 Norte 35 Norte 0.1 -- -- --
2018-05-05 22:00:00 7.7 29 Norte 39 Norte 0 -- -- --
2018-05-05 21:00:00 8 23 Norte 30 Norte 0 -- -- --
2018-05-05 20:00:00 8.5 14 Nordeste 23 Nordeste 0 -- -- --
2018-05-05 19:00:00 8.9 9 Norte 19 Nordeste 0 -- -- --
2018-05-05 18:00:00 8.6 16 Norte 24 Noroeste 0 -- -- --
2018-05-05 17:00:00 8.2 21 Norte 29 Norte 0.3 -- -- --
2018-05-05 16:00:00 7.9 22 Norte 37 Norte 0.3 -- -- --
2018-05-05 15:00:00 7.5 28 Noroeste 44 Norte 0.5 -- -- --
2018-05-05 14:00:00 7.1 31 Noroeste 55 Noroeste 1.1 -- -- --
2018-05-05 13:00:00 6.5 41 Noroeste 51 Norte 2.6 -- -- --
2018-05-05 12:00:00 6.4 39 Norte 53 Norte 3.1 -- -- --
2018-05-05 11:00:00 6.6 45 Noroeste 56 Noroeste 1.5 -- -- --
2018-05-05 10:00:00 6.8 42 Noroeste 57 Noroeste 1.8 -- -- --
2018-05-05 09:00:00 6.6 41 Noroeste 51 Norte 2.2 -- -- --
2018-05-05 08:00:00 6.7 42 Noroeste 57 Norte 0.7 -- -- --
2018-05-05 07:00:00 6.3 39 Norte 48 Noroeste 0.1 -- -- --
2018-05-05 06:00:00 6.2 44 Noroeste 53 Noroeste 0.2 -- -- --
2018-05-05 05:00:00 6.1 42 Norte 52 Noroeste 0.1 -- -- --
2018-05-05 04:00:00 5.3 45 Norte 59 Noroeste 0 -- -- --
2018-05-05 03:00:00 5.1 37 Norte 50 Noroeste 0.1 -- -- --
2018-05-05 02:00:00 5 42 Noroeste 52 Noroeste 0 -- -- --
2018-05-05 01:00:00 4.9 38 Norte 51 Norte 0.4 -- -- --
2018-05-05 00:00:00 6.5 45 Noroeste 56 Noroeste 0 -- -- --
2018-05-04 23:00:00 6.6 34 Norte 44 Noroeste 0 -- -- --
2018-05-04 22:00:00 6.4 35 Norte 52 Norte 0 -- -- --
2018-05-04 21:00:00 5.6 39 Norte 49 Norte 0 -- -- --
2018-05-04 20:00:00 5.7 34 Norte 45 Norte 0.1 -- -- --
2018-05-04 19:00:00 5.5 29 Noroeste 41 Noroeste 0.2 -- -- --
2018-05-04 18:00:00 5.5 28 Noroeste 45 Noroeste 0 -- -- --
2018-05-04 17:00:00 5.6 41 Noroeste 50 Noroeste 0.5 -- -- --
2018-05-04 16:00:00 5.3 39 Noroeste 54 Noroeste 2.7 -- -- --
2018-05-04 15:00:00 5.3 39 Noroeste 52 Noroeste 1.3 -- -- --
2018-05-04 14:00:00 5.9 37 Noroeste 48 Noroeste 1.2 -- -- --
2018-05-04 13:00:00 6.6 31 Noroeste 46 Noroeste 0.3 -- -- --
2018-05-04 12:00:00 6.4 37 Noroeste 47 Noroeste 0.1 -- -- --
2018-05-04 11:00:00 7 36 Noroeste 43 Noroeste 0.4 -- -- --
2018-05-04 10:00:00 6.3 28 Noroeste 35 Norte 0.2 -- -- --
2018-05-04 09:00:00 6.3 32 Noroeste 52 Norte 0.5 -- -- --
2018-05-04 08:00:00 5.6 33 Noroeste 46 Noroeste 0 -- -- --
2018-05-04 07:00:00 5.5 39 Noroeste 47 Noroeste 0 -- -- --
2018-05-04 06:00:00 5.2 37 Noroeste 46 Noroeste 0 -- -- --
2018-05-04 05:00:00 6 26 Noroeste 38 Noroeste 0 -- -- --
2018-05-04 04:00:00 6.2 25 Noroeste 40 Norte 0 -- -- --
2018-05-04 03:00:00 6.1 28 Noroeste 45 Noroeste 0 -- -- --
2018-05-04 02:00:00 6.4 32 Noroeste 44 Noroeste 0 -- -- --
2018-05-04 01:00:00 6.8 27 Noroeste 36 Noroeste 0 -- -- --
2018-05-04 00:00:00 7.1 10 Noroeste 16 Noroeste 0 -- -- --
2018-05-03 23:00:00 7.8 4 Sudeste 19 Norte 0 -- -- --
2018-05-03 22:00:00 7.4 15 Noroeste 40 Norte 0 -- -- --
2018-05-03 21:00:00 7.8 31 Noroeste 56 Noroeste 0 -- -- --
2018-05-03 20:00:00 8.4 48 Noroeste 59 Noroeste 0 -- -- --
2018-05-03 19:00:00 9.8 43 Noroeste 60 Noroeste 0 -- -- --
2018-05-03 18:00:00 10.3 30 Noroeste -- -- 0 -- -- --
2018-05-03 17:00:00 10 28 Noroeste 39 Norte 0 -- -- --
2018-05-03 16:00:00 9.9 22 Noroeste 38 Noroeste 0 -- -- --
2018-05-03 15:00:00 10.3 25 Norte 36 Noroeste 0 -- -- --
2018-05-03 14:00:00 12.3 15 Norte 26 Noroeste 0 -- -- --
2018-05-03 13:00:00 13.1 8 Norte 17 Norte 0 -- -- --
2018-05-03 12:00:00 12.6 4 Norte 15 Nordeste 0 -- -- --
2018-05-03 11:00:00 11.2 8 Nordeste 17 Nordeste 0 -- -- --
2018-05-03 10:00:00 12.1 4 Sudeste 16 Este 0 -- -- --
2018-05-03 09:00:00 9.4 12 Nordeste 21 Nordeste 0 -- -- --
2018-05-03 08:00:00 6.2 18 Norte 24 Noroeste 0 -- -- --
2018-05-03 07:00:00 6 19 Noroeste 38 Noroeste 0 -- -- --
2018-05-03 06:00:00 6.2 26 Noroeste 45 Noroeste 0 -- -- --
2018-05-03 05:00:00 6.2 36 Noroeste 53 Noroeste 0 -- -- --
2018-05-03 04:00:00 6.7 36 Noroeste 49 Noroeste 0 -- -- --
2018-05-03 03:00:00 7.9 26 Noroeste 42 Oeste 0 -- -- --
2018-05-03 02:00:00 7.4 18 Noroeste 32 Noroeste 0 -- -- --
2018-05-03 01:00:00 7.3 12 Oeste 33 Noroeste 0 -- -- --
2018-05-03 00:00:00 7 18 Noroeste 36 Noroeste 0 -- -- --
2018-05-02 23:00:00 7 24 Noroeste 35 Noroeste 0 -- -- --
2018-05-02 22:00:00 6.5 20 Noroeste 34 Noroeste 0 -- -- --
2018-05-02 21:00:00 6.8 26 Noroeste 49 Noroeste 0 -- -- --
2018-05-02 20:00:00 8.3 32 Noroeste 54 Noroeste 0 -- -- --
2018-05-02 19:00:00 8.8 37 Noroeste 57 Norte 0 -- -- --
2018-05-02 18:00:00 9 29 Noroeste 46 Norte 0 -- -- --
2018-05-02 17:00:00 9.5 28 Noroeste 47 Oeste 0 -- -- --
2018-05-02 16:00:00 7.7 27 Noroeste 42 Norte 0 -- -- --
2018-05-02 15:00:00 9.1 25 Noroeste 40 Noroeste 0 -- -- --
2018-05-02 14:00:00 7.7 26 Noroeste 57 Noroeste 0 -- -- --
2018-05-02 13:00:00 7.8 29 Noroeste 49 Norte 0 -- -- --
2018-05-02 12:00:00 6.9 28 Noroeste 60 Noroeste 0 -- -- --
2018-05-02 11:00:00 4.9 37 Noroeste 62 Noroeste 0 -- -- --
2018-05-02 10:00:00 4.6 30 Noroeste 56 Noroeste 0 -- -- --
2018-05-02 09:00:00 4.1 29 Noroeste 59 Noroeste 0 -- -- --
2018-05-02 08:00:00 3.9 31 Noroeste 57 Noroeste 0 -- -- --
2018-05-02 07:00:00 3.4 24 Noroeste 40 Noroeste 0 -- -- --
2018-05-02 06:00:00 3.3 22 Noroeste 36 Noroeste 0 -- -- --
2018-05-02 05:00:00 3.6 27 Noroeste 42 Noroeste 0 -- -- --
2018-05-02 04:00:00 3.7 23 Noroeste 40 Noroeste 0 -- -- --
2018-05-02 03:00:00 3.6 24 Noroeste 47 Noroeste 0 -- -- --
2018-05-02 02:00:00 3.5 28 Noroeste 50 Noroeste 0 -- -- --
2018-05-02 01:00:00 3.6 33 Noroeste 51 Norte 0 -- -- --
2018-05-02 00:00:00 3.8 33 Noroeste 45 Noroeste 0 -- -- --
2018-05-01 23:00:00 3.3 27 Norte 47 Noroeste 0 -- -- --
2018-05-01 22:00:00 3.4 35 Norte 48 Norte 0 -- -- --
2018-05-01 21:00:00 3.5 29 Norte 42 Norte 0 -- -- --
2018-05-01 20:00:00 4.7 21 Norte 35 Norte 0 -- -- --
2018-05-01 19:00:00 6.2 18 Noroeste 32 Norte 0 -- -- --
2018-05-01 18:00:00 6 21 Noroeste 45 Noroeste 0 -- -- --
2018-05-01 17:00:00 5.1 30 Noroeste 48 Norte 0 -- -- --
2018-05-01 16:00:00 3.9 31 Noroeste 52 Noroeste 0 -- -- --
2018-05-01 15:00:00 5.2 36 Noroeste 45 Noroeste 0 -- -- --
2018-05-01 14:00:00 4.5 27 Noroeste 52 Noroeste 0 -- -- --
2018-05-01 13:00:00 4.9 36 Noroeste 50 Noroeste 0 -- -- --
2018-05-01 12:00:00 7.7 5 Noroeste 15 Norte 0.1 -- -- --
2018-05-01 11:00:00 5.8 5 Noroeste 19 Noroeste 0 -- -- --
2018-05-01 10:00:00 5.1 11 Norte 64 Norte 0 -- -- --
2018-05-01 09:00:00 3.6 18 Norte 31 Nordeste 0.1 -- -- --
2018-05-01 08:00:00 2.9 18 Este 27 Este 11.8 -- -- --
2018-05-01 07:00:00 5.1 3 Sur 23 Noroeste 0.1 -- -- --
2018-05-01 06:00:00 5.1 17 Norte 23 Norte 0 -- -- --
2018-05-01 05:00:00 5.3 8 Noroeste 17 Norte 0 -- -- --
2018-05-01 04:00:00 5.6 9 Norte 12 Sur 0 -- -- --
2018-05-01 03:00:00 5.2 8 Sur 11 Sur 0 -- -- --
2018-05-01 02:00:00 5.7 5 Noroeste 12 Sudeste 0 -- -- --
2018-05-01 01:00:00 4.8 13 Sudeste 25 Sur 0 -- -- --
2018-05-01 00:00:00 5 18 Sur 24 Sur 0 -- -- --
2018-04-30 23:00:00 5.4 12 Sur 17 Sur 0 -- -- --
2018-04-30 22:00:00 5.6 15 Sur 19 Sur 0 -- -- --
2018-04-30 21:00:00 5.9 14 Sur 26 Sur 0 -- -- --
2018-04-30 20:00:00 6.7 19 Sur 28 Sur 0 -- -- --
2018-04-30 19:00:00 8.7 14 Sur 26 Sur 0 -- -- --
2018-04-30 18:00:00 9.6 11 Sur 22 Sudoeste 0 -- -- --
2018-04-30 17:00:00 9.8 9 Sur 46 Sur 0 -- -- --
2018-04-30 16:00:00 11 9 Sudoeste 24 Sudoeste 0 -- -- --
2018-04-30 15:00:00 12.4 8 Sudoeste 29 Sudoeste 0 -- -- --
2018-04-30 14:00:00 11.9 15 Sudoeste 33 Oeste 0 -- -- --
2018-04-30 13:00:00 9.9 10 Noroeste 28 Oeste 0 -- -- --
2018-04-30 12:00:00 11.1 15 Noroeste 37 Noroeste 0 -- -- --
2018-04-30 11:00:00 11 21 Noroeste 43 Noroeste 0 -- -- --
2018-04-30 10:00:00 10.4 13 Noroeste 45 Noroeste 0 -- -- --
2018-04-30 09:00:00 8 21 Noroeste 48 Sudoeste 0 -- -- --
2018-04-30 08:00:00 6.5 19 Oeste 48 Oeste 0 -- -- --
2018-04-30 07:00:00 5.6 21 Noroeste 51 Noroeste 0 -- -- --
2018-04-30 06:00:00 5.8 26 Noroeste 47 Noroeste 0 -- -- --
2018-04-30 05:00:00 5.8 17 Oeste 49 Oeste 0 -- -- --
2018-04-30 04:00:00 6.2 18 Oeste 62 Oeste 0 -- -- --
2018-04-30 03:00:00 6.6 29 Oeste 58 Sudoeste 0 -- -- --
2018-04-30 02:00:00 6.8 27 Oeste 59 Oeste 0 -- -- --
2018-04-30 01:00:00 7.1 29 Oeste 61 Oeste 0 -- -- --
2018-04-30 00:00:00 6.8 23 Sudoeste 62 Oeste 0 -- -- --
2018-04-29 23:00:00 7.6 35 Oeste 73 Oeste 0 -- -- --
2018-04-29 22:00:00 7.8 34 Oeste 70 Oeste 0 -- -- --
2018-04-29 21:00:00 8 33 Oeste 75 Oeste 0 -- -- --
2018-04-29 20:00:00 8.2 29 Sudoeste 67 Oeste 0 -- -- --
2018-04-29 19:00:00 9.6 19 Sudoeste 54 Sudoeste 0 -- -- --
2018-04-29 18:00:00 9.1 24 Sudoeste 57 Sudoeste 0 -- -- --
2018-04-29 17:00:00 8.9 23 Sudoeste 49 Sudoeste 0 -- -- --
2018-04-29 16:00:00 9.3 18 Sudoeste 43 Oeste 0 -- -- --
2018-04-29 15:00:00 9.7 14 Sudoeste 44 Sudoeste 0 -- -- --
2018-04-29 14:00:00 10.2 18 Sudoeste 46 Sudoeste 0 -- -- --
2018-04-29 13:00:00 8.1 16 Sudoeste 53 Oeste 0 -- -- --
2018-04-29 12:00:00 8.1 15 Sudoeste 47 Sur 0 -- -- --
2018-04-29 11:00:00 7.6 32 Sur 61 Sur 0.1 -- -- --
2018-04-29 10:00:00 8 35 Sur 65 Sur 0 -- -- --
2018-04-29 09:00:00 7.7 35 Sur 53 Sur 0.5 -- -- --
2018-04-29 08:00:00 8.5 28 Sur 72 Sur 0.6 -- -- --
2018-04-29 07:00:00 8.8 36 Sur 62 Sur 0.8 -- -- --
2018-04-29 06:00:00 8.8 35 Sur 60 Sur 0 -- -- --
2018-04-29 05:00:00 8.5 41 Sur 68 Sur 0 -- -- --
2018-04-29 04:00:00 8.6 42 Sur 65 Sur 0 -- -- --
2018-04-29 03:00:00 8.5 45 Sur 62 Sur 0 -- -- --
2018-04-29 02:00:00 8.3 42 Sur 62 Sur 0 -- -- --
2018-04-29 01:00:00 8.8 42 Sur 61 Sur 0 -- -- --
2018-04-29 00:00:00 8.6 36 Sur 48 Sur 0 -- -- --
2018-04-28 23:00:00 9.5 33 Sur 45 Sur 0 -- -- --
2018-04-28 22:00:00 10.5 32 Sur 44 Sur 0 -- -- --
2018-04-28 21:00:00 10.1 29 Sur 45 Sur 0 -- -- --
2018-04-28 20:00:00 11.2 32 Sur 46 Sur 0 -- -- --
2018-04-28 19:00:00 12.3 33 Sur 48 Sur 0 -- -- --
2018-04-28 18:00:00 12.7 32 Sur 48 Sur 0 -- -- --
2018-04-28 17:00:00 13 30 Sur 46 Sur 0 -- -- --
2018-04-28 16:00:00 14 29 Sur 45 Sur 0 -- -- --
2018-04-28 15:00:00 14 29 Sur 42 Sur 0 -- -- --
2018-04-28 14:00:00 14.7 28 Sur 40 Sudeste 0 -- -- --
2018-04-28 13:00:00 14.3 28 Sur 40 Sur 0 -- -- --
2018-04-28 12:00:00 14 24 Sur 39 Sur 0 -- -- --
2018-04-28 11:00:00 12.3 24 Sur 35 Sur 0 -- -- --
2018-04-28 10:00:00 11.6 22 Sur 34 Sur 0 -- -- --
2018-04-28 09:00:00 10.6 23 Sur 35 Sur 0 -- -- --
2018-04-28 08:00:00 9.8 23 Sur 32 Sur 0 -- -- --
2018-04-28 07:00:00 10.6 22 Sur 39 Sur 0 -- -- --
2018-04-28 06:00:00 10.4 27 Sur 37 Sur 0 -- -- --
2018-04-28 05:00:00 10.8 22 Sur 34 Sur 0 -- -- --
2018-04-28 04:00:00 10.7 25 Sur 32 Sur 0 -- -- --
2018-04-28 03:00:00 10.6 25 Sur 32 Sur 0 -- -- --
2018-04-28 02:00:00 10.6 21 Sur 30 Sur 0 -- -- --
2018-04-28 01:00:00 10.7 22 Sur 28 Sur 0 -- -- --
2018-04-28 00:00:00 11.2 19 Sur 27 Sur 0 -- -- --
2018-04-27 23:00:00 10.9 22 Sur 29 Sudoeste 0 -- -- --
2018-04-27 22:00:00 10.6 18 Sur 27 Sur 0 -- -- --
2018-04-27 21:00:00 10.2 22 Sur 28 Sur 0 -- -- --
2018-04-27 20:00:00 10.8 20 Sur 27 Sur 0 -- -- --
2018-04-27 19:00:00 11.1 23 Sur 35 Sur 0 -- -- --
2018-04-27 18:00:00 12.2 27 Sur 35 Sur 0 -- -- --
2018-04-27 17:00:00 13.4 22 Sur 32 Sur 0 -- -- --
2018-04-27 16:00:00 14.6 23 Sur 38 Sur 0 -- -- --
2018-04-27 15:00:00 14.9 21 Sur 34 Sur 0 -- -- --
2018-04-27 14:00:00 16.2 18 Sur 28 Sur 0 -- -- --
2018-04-27 13:00:00 15.4 17 Sur 27 Sur 0 -- -- --
2018-04-27 12:00:00 14.8 15 Sur 25 Sur 0 -- -- --
2018-04-27 11:00:00 16.3 4 Sudoeste 13 Noroeste 0 -- -- --
2018-04-27 10:00:00 15.9 3 Oeste 13 Noroeste 0 -- -- --
2018-04-27 09:00:00 15.1 9 Noroeste 14 Noroeste 0 -- -- --
2018-04-27 08:00:00 12.3 13 Noroeste 23 Noroeste 0 -- -- --
2018-04-27 07:00:00 11.1 19 Noroeste 23 Noroeste 0 -- -- --
2018-04-27 06:00:00 11.3 17 Noroeste 19 Noroeste 0 -- -- --
2018-04-27 05:00:00 11.2 14 Norte 17 Norte 0 -- -- --
2018-04-27 04:00:00 11.4 14 Norte 23 Norte 0 -- -- --
2018-04-27 03:00:00 11.6 15 Norte 26 Norte 0 -- -- --
2018-04-27 02:00:00 11.5 19 Norte 26 Norte 0 -- -- --
2018-04-27 01:00:00 11.2 15 Norte 26 Noroeste 0 -- -- --
2018-04-27 00:00:00 12 14 Noroeste 18 Noroeste 0 -- -- --
2018-04-26 23:00:00 12.3 15 Noroeste 25 Noroeste 0 -- -- --
2018-04-26 22:00:00 13.4 13 Norte 22 Norte 0 -- -- --
2018-04-26 21:00:00 13.5 19 Norte 26 Noroeste 0 -- -- --
2018-04-26 20:00:00 13.8 14 Norte 23 Norte 0 -- -- --
2018-04-26 19:00:00 13.4 10 Norte 20 Nordeste 0 -- -- --
2018-04-26 18:00:00 13.7 12 Nordeste 26 Nordeste 0 -- -- --
2018-04-26 17:00:00 14.6 8 Nordeste 31 Nordeste 0 -- -- --
2018-04-26 16:00:00 15.9 10 Este 33 Nordeste 0 -- -- --
2018-04-26 15:00:00 15.5 21 Nordeste 39 Nordeste 0 -- -- --
2018-04-26 14:00:00 14.4 24 Nordeste 50 Nordeste 0 -- -- --
2018-04-26 13:00:00 14.4 31 Nordeste 51 Nordeste 0 -- -- --
2018-04-26 12:00:00 12.5 19 Norte 47 Nordeste 0 -- -- --
2018-04-26 11:00:00 13.2 34 Nordeste 59 Nordeste 0 -- -- --
2018-04-26 10:00:00 13.3 30 Nordeste 49 Este 0 -- -- --
2018-04-26 09:00:00 11.8 18 Nordeste 42 Este 0 -- -- --
2018-04-26 08:00:00 12.2 27 Nordeste 48 Este 0 -- -- --
2018-04-26 07:00:00 12.2 32 Este 49 Este 0 -- -- --
2018-04-26 06:00:00 13.1 24 Nordeste 46 Este 0 -- -- --
2018-04-26 05:00:00 11.7 33 Este 49 Este 0 -- -- --
2018-04-26 04:00:00 11.8 31 Este 46 Este 0 -- -- --
2018-04-26 03:00:00 14.3 24 Este 40 Este 0 -- -- --
2018-04-26 02:00:00 14.4 27 Sudeste 39 Este 0 -- -- --
2018-04-26 01:00:00 15.2 24 Este 36 Sudeste 0 -- -- --
2018-04-26 00:00:00 15.4 24 Sudeste 36 Sudeste 0 -- -- --
2018-04-25 23:00:00 15.9 25 Este 37 Sudeste 0 -- -- --
2018-04-25 22:00:00 15.5 23 Este 33 Este 0 -- -- --
2018-04-25 21:00:00 15.2 22 Este 29 Este 0 -- -- --
2018-04-25 20:00:00 15.4 14 Nordeste 23 Este 0 -- -- --
2018-04-25 19:00:00 16.2 12 Nordeste 28 Sudeste 0 -- -- --
2018-04-25 18:00:00 15.9 22 Sudeste 29 Sudeste 0 -- -- --
2018-04-25 17:00:00 16.1 19 Sur 31 Sur 0 -- -- --
2018-04-25 16:00:00 16.4 15 Sudeste 40 Sur 0 -- -- --
2018-04-25 15:00:00 17.3 23 Sudeste 51 Sudeste 0 -- -- --
2018-04-25 14:00:00 16.5 32 Sudeste 46 Sudeste 0 -- -- --
2018-04-25 13:00:00 16.3 28 Sudeste 45 Sudeste 0 -- -- --
2018-04-25 12:00:00 16.6 23 Sudeste 41 Sudeste 0 -- -- --
2018-04-25 11:00:00 16 27 Sudeste 46 Sudeste 0 -- -- --
2018-04-25 10:00:00 14.3 33 Sudeste 51 Sudeste 0 -- -- --
2018-04-25 09:00:00 13.6 37 Sudeste 49 Sudeste 0 -- -- --
2018-04-25 08:00:00 13.4 34 Sudeste 48 Sudeste 0 -- -- --
2018-04-25 07:00:00 13.4 31 Este 48 Este 0 -- -- --
2018-04-25 06:00:00 13.1 31 Sudeste 44 Sudeste 0 -- -- --
2018-04-25 05:00:00 13.7 27 Este 36 Este 0 -- -- --
2018-04-25 04:00:00 13.9 27 Sudeste 37 Sudeste 0 -- -- --
2018-04-25 03:00:00 15 24 Sudeste 36 Sudeste 0 -- -- --
2018-04-25 02:00:00 14.4 27 Sudeste 40 Sudeste 0 -- -- --
2018-04-25 01:00:00 15.2 29 Sudeste 42 Este 0 -- -- --
2018-04-25 00:00:00 15.6 31 Sudeste 43 Sudeste 0 -- -- --
2018-04-24 23:00:00 15.2 36 Sudeste 44 Sudeste 0 -- -- --
2018-04-24 22:00:00 14.5 34 Este 44 Este 0 -- -- --
2018-04-24 21:00:00 14.8 35 Este 44 Sudeste 0 -- -- --
2018-04-24 20:00:00 15.4 31 Este 38 Este 0 -- -- --
2018-04-24 19:00:00 15.6 28 Este 40 Este 0 -- -- --
2018-04-24 18:00:00 15.9 30 Este 43 Sudeste 0 -- -- --
2018-04-24 17:00:00 16.8 30 Este 40 Sudeste 0 -- -- --
2018-04-24 16:00:00 17.6 29 Sudeste 43 Este 0 -- -- --
2018-04-24 15:00:00 18.6 28 Sudeste 45 Sudeste 0 -- -- --
2018-04-24 14:00:00 18.5 31 Sudeste 42 Este 0 -- -- --
2018-04-24 13:00:00 17.9 15 Sudeste 30 Sur 0 -- -- --
2018-04-24 12:00:00 18 14 Sudeste 28 Sur 0 -- -- --
2018-04-24 11:00:00 16.6 14 Sudeste 36 Este 0 -- -- --
2018-04-24 10:00:00 15.4 27 Este 48 Este 0 -- -- --
2018-04-24 09:00:00 13.7 33 Sudeste 52 Este 0 -- -- --
2018-04-24 08:00:00 12.7 34 Sudeste 45 Sudeste 0 -- -- --
2018-04-24 07:00:00 12.8 37 Sudeste 47 Sudeste 0 -- -- --
2018-04-24 06:00:00 12.8 27 Este 39 Este 0 -- -- --
2018-04-24 05:00:00 12.7 27 Este 49 Sudeste 0 -- -- --
2018-04-24 04:00:00 12.9 41 Sudeste 52 Sudeste 0 -- -- --
2018-04-24 03:00:00 12.8 29 Sudeste 44 Sudeste 0 -- -- --
2018-04-24 02:00:00 13.1 32 Sudeste 45 Sudeste 0 -- -- --
2018-04-24 01:00:00 13.3 28 Sudeste 41 Sudeste 0 -- -- --
2018-04-24 00:00:00 13.4 27 Este 33 Sudeste 0 -- -- --
2018-04-23 23:00:00 13.7 23 Sudeste 32 Este 0 -- -- --
2018-04-23 22:00:00 14.2 13 Nordeste 19 Nordeste 0 -- -- --
2018-04-23 21:00:00 14.3 14 Nordeste 17 Nordeste 0 -- -- --
2018-04-23 20:00:00 15.1 8 Este 22 Sudeste 0 -- -- --
2018-04-23 19:00:00 15.9 12 Sudeste 27 Sudeste 0 -- -- --
2018-04-23 18:00:00 16.4 17 Sudeste 35 Sudeste 0 -- -- --
2018-04-23 17:00:00 17.3 24 Sudeste 38 Sudeste 0 -- -- --
2018-04-23 16:00:00 17.4 25 Sudeste 39 Sudeste 0 -- -- --
2018-04-23 15:00:00 17.6 24 Sudeste 37 Sudeste 0 -- -- --
2018-04-23 14:00:00 17.9 21 Sudeste 32 Sudeste 0 -- -- --
2018-04-23 13:00:00 18.8 18 Sudeste 33 Sudeste 0 -- -- --
2018-04-23 12:00:00 17.9 17 Sudeste 27 Sudeste 0 -- -- --
2018-04-23 11:00:00 16.7 15 Sudeste 26 Sur 0 -- -- --
2018-04-23 10:00:00 15.9 13 Este 21 Este 0 -- -- --
2018-04-23 09:00:00 14.6 18 Este 39 Sudeste 0 -- -- --
2018-04-23 08:00:00 12.9 28 Sudeste 39 Sudeste 0 -- -- --
2018-04-23 07:00:00 12.4 34 Sudeste 39 Sudeste 0 -- -- --
2018-04-23 06:00:00 12.1 27 Sudeste 33 Sudeste 0 -- -- --
2018-04-23 05:00:00 12.1 22 Sudeste 31 Sudeste 0 -- -- --
2018-04-23 04:00:00 12.3 23 Sudeste 36 Sudeste 0 -- -- --
2018-04-23 03:00:00 12.4 25 Sudeste 37 Sudeste 0 -- -- --
2018-04-23 02:00:00 12.5 29 Sudeste 39 Sudeste 0 -- -- --
2018-04-23 01:00:00 12.1 30 Sudeste 37 Sur 0 -- -- --
2018-04-23 00:00:00 13 28 Sudeste 35 Sudeste 0 -- -- --
2018-04-22 23:00:00 13.3 25 Sudeste 33 Sudeste 0 -- -- --
2018-04-22 22:00:00 13.4 24 Sudeste 33 Sudeste 0 -- -- --
2018-04-22 21:00:00 13.5 27 Sudeste 38 Sudeste 0 -- -- --
2018-04-22 20:00:00 13.6 32 Sudeste 41 Sudeste 0 -- -- --
2018-04-22 19:00:00 15.2 27 Sudeste 36 Sur 0 -- -- --
2018-04-22 18:00:00 16.4 19 Sur 33 Sur 0 -- -- --
2018-04-22 17:00:00 17.2 14 Sur 31 Sur 0 -- -- --
2018-04-22 16:00:00 17.3 18 Sur 28 Sudeste 0 -- -- --
2018-04-22 15:00:00 17.7 18 Sudeste 30 Sur 0 -- -- --
2018-04-22 14:00:00 18.1 14 Sur 31 Sudeste 0 -- -- --
2018-04-22 13:00:00 16.7 14 Sur 27 Sur 0 -- -- --
2018-04-22 12:00:00 16.6 12 Sur 24 Sur 0 -- -- --
2018-04-22 11:00:00 16.4 16 Sudeste 29 Sur 0 -- -- --
2018-04-22 10:00:00 15.2 18 Sudeste 29 Sur 0 -- -- --
2018-04-22 09:00:00 12.6 26 Sudeste 32 Sudeste 0 -- -- --
2018-04-22 08:00:00 11.3 24 Sudeste 29 Sudeste 0 -- -- --
2018-04-22 07:00:00 10.9 18 Sudeste 23 Sudeste 0 -- -- --
2018-04-22 06:00:00 11.2 21 Sudeste 27 Sudeste 0 -- -- --
2018-04-22 05:00:00 11.5 18 Sudeste 30 Sudeste 0 -- -- --
2018-04-22 04:00:00 12 25 Sudeste 33 Sur 0 -- -- --
2018-04-22 03:00:00 12.1 25 Sudeste 32 Sudeste 0 -- -- --
2018-04-22 02:00:00 11.8 21 Sudeste 31 Sudeste 0 -- -- --
2018-04-22 01:00:00 11.2 22 Sudeste 27 Sudeste 0 -- -- --
2018-04-22 00:00:00 11.1 16 Sudeste 19 Sudeste 0 -- -- --